Location: Beemte
(52.2555°N, 5.9895°E)
Time: 07:45:39
(UTC+00:00)

Okean-O - Pass Details

Date: 15 May 2026
Orbit: 627 x 629 km, 97.9° (Epoch: 6 June)

Event Time Altitude Azimuth Distance (km) Brightness Sun altitude
Exits shadow 20:14:53 - 164° (SSE) 2,449 5.1 -6.8°
Reaches altitude 10° 20:15:58 10° 164° (SSE) 2,004 4.7 -7.0°
Maximum altitude 20:20:20 90° 90° (E) 637 2.6 -7.4°
Drops below altitude 10° 20:24:45 10° 346° (NNW) 2,019 6.3 -7.9°
Sets 20:26:57 0° 346° (NNW) 2,930 7.2 -8.1°
